Location: ???????
(55.3754°N, 39.3545°E)
Time: 18:19:30
(UTC+00:00)

Cosmos 1627 Rocket - Pass Details

Date: 14 April 2026
Orbit: 950 x 1002 km, 82.9° (Epoch: 16 May)

Event Time Altitude Azimuth Distance (km) Brightness Sun altitude
Rises 23:24:04 0° 347° (NNW) 3,662 8.2 -20.2°
Reaches altitude 10° 23:26:34 10° 345° (NNW) 2,718 7.4 -20.0°
Maximum altitude 23:32:44 68° 264° (W) 1,049 4.5 -19.5°
Enters shadow 23:36:01 29° 190° (S) 1,705 5.3 -19.2°
